Location: Piolenc
(44.1794°N, 4.7641°E)
Time: 04:12:39
(UTC+00:00)

ATLAS CENTAUR R/B - Pass Details

Date: 27 January 2021
Orbit: 471 x 674 km, 64.6° (Epoch: 24 February)

Event Time Altitude Azimuth Distance (km) Brightness Sun altitude
Exits shadow 04:32:03 24° 48° (NE) 1,024 3.1 -27.2°
Drops below altitude 10° 04:33:37 10° 41° (NE) 1,640 4.2 -26.9°
Sets 04:35:46 0° 38° (NE) 2,529 5.2 -26.5°
